contact:dominique.lefevre@mio.osupytheas.fr, maurice.libes@osupytheas.fr
Project:EMSO Ligure-ouest http://www.emso-fr.org/EMSO-France
Sensor Aquadopp, line 04 Serial AQD8517 
DOI : "https://doi.org/10.17882/74513; https://doi.org/10.17882/83244" 
Title:EMSO Ligure Ouest : Data ligne ALBATROSS capteur AQUADOPP - deploiement 2021
Id,Date,Profondeur,Latitude,Longitude,X_East,Y_North,Z_Up,Amplitude_X,Amplitude_Y,Amplitude_Z,Batterie,SoundSpeed,Heading,Pitch,Roll,Pressure,Temperature,Speed,Direction
, , m, degrees North, degrees East, m.s-1, m.s-1,m.s-1, 1, 1, 1, Volt, m.s-1, degree, degree, degree, dbar, degree_C, m.s-1, degree
04,2022-03-23T21:00:00,1000.0,42.79,6.0312,-0.015,0.003,0.008,45.0,47.0,45.0,12.2,1504.4,289.9,-0.6,-0.3,967.384,13.21,0.015,281.3
04,2022-03-23T21:30:00,1000.0,42.79,6.0312,-0.007,0.01,-0.002,50.0,47.0,47.0,12.2,1504.4,290.9,-0.7,-0.3,967.383,13.21,0.012,325.0
04,2022-03-23T22:00:00,1000.0,42.79,6.0312,-0.02,-0.002,0.007,48.0,47.0,44.0,12.2,1504.4,290.3,-0.6,-0.3,967.419,13.21,0.02,264.3
04,2022-03-23T22:30:00,1000.0,42.79,6.0312,-0.032,0.009,0.003,47.0,48.0,49.0,12.2,1504.4,291.9,-0.7,-0.3,967.427,13.21,0.033,285.7
04,2022-03-23T23:00:00,1000.0,42.79,6.0312,-0.021,-0.008,0.0,46.0,51.0,48.0,12.2,1504.4,293.5,-0.7,-0.3,967.423,13.21,0.022,249.1
04,2022-03-23T23:30:00,1000.0,42.79,6.0312,-0.028,0.002,0.007,46.0,47.0,44.0,12.2,1504.4,293.7,-0.7,-0.3,967.432,13.22,0.028,274.1
04,2022-03-24T00:00:00,1000.0,42.79,6.0312,-0.031,0.005,0.005,45.0,51.0,47.0,12.2,1504.4,294.5,-0.7,-0.2,967.459,13.22,0.031,279.2
04,2022-03-24T00:30:00,1000.0,42.79,6.0312,-0.03,0.006,0.008,46.0,49.0,45.0,12.2,1504.4,306.8,-0.7,-0.2,967.403,13.22,0.03,281.3
04,2022-03-24T01:00:00,1000.0,42.79,6.0312,-0.04,-0.007,0.0,46.0,50.0,45.0,12.2,1504.4,277.0,-0.6,-0.2,967.417,13.22,0.04,260.1
04,2022-03-24T01:30:00,1000.0,42.79,6.0312,-0.042,0.008,0.0,47.0,51.0,47.0,12.2,1504.4,296.1,-0.6,-0.2,967.403,13.22,0.042,280.8
04,2022-03-24T02:00:00,1000.0,42.79,6.0312,-0.035,0.023,-0.007,46.0,48.0,46.0,12.2,1504.4,315.8,-0.6,-0.3,967.387,13.22,0.041,303.3
04,2022-03-24T02:30:00,1000.0,42.79,6.0312,-0.038,0.028,-0.011,45.0,49.0,46.0,12.2,1504.4,315.5,-0.6,-0.3,967.33,13.22,0.047,306.4
04,2022-03-24T03:00:00,1000.0,42.79,6.0312,-0.045,0.012,0.008,48.0,47.0,45.0,12.2,1504.4,293.4,-0.6,-0.3,967.331,13.22,0.046,284.9
04,2022-03-24T03:30:00,1000.0,42.79,6.0312,-0.049,0.002,0.0,48.0,49.0,47.0,12.2,1504.4,279.5,-0.5,-0.3,967.335,13.22,0.049,272.3
04,2022-03-24T04:00:00,1000.0,42.79,6.0312,-0.053,0.004,-0.004,47.0,50.0,46.0,12.2,1504.5,284.1,-0.6,-0.3,967.315,13.23,0.053,274.3
04,2022-03-24T04:30:00,1000.0,42.79,6.0312,-0.057,0.014,0.015,46.0,48.0,47.0,12.2,1504.4,285.4,-0.5,-0.3,967.31,13.22,0.058,283.8
04,2022-03-24T05:00:00,1000.0,42.79,6.0312,-0.048,0.019,0.0,47.0,49.0,45.0,12.2,1504.4,289.0,-0.5,-0.3,967.295,13.22,0.051,291.6
04,2022-03-24T05:30:00,1000.0,42.79,6.0312,-0.049,0.025,0.023,46.0,48.0,45.0,12.2,1504.4,298.9,-0.6,-0.3,967.289,13.22,0.055,297.0
04,2022-03-24T06:00:00,1000.0,42.79,6.0312,-0.039,0.029,0.0,47.0,48.0,46.0,12.2,1504.4,295.8,-0.5,-0.3,967.297,13.21,0.048,306.6
04,2022-03-24T06:30:00,1000.0,42.79,6.0312,-0.029,0.039,0.022,47.0,49.0,47.0,12.2,1504.4,323.0,-0.6,-0.3,967.256,13.21,0.048,323.4
04,2022-03-24T07:00:00,1000.0,42.79,6.0312,-0.027,0.029,0.003,47.0,50.0,46.0,12.2,1504.4,312.9,-0.6,-0.3,967.303,13.22,0.039,317.0
04,2022-03-24T07:30:00,1000.0,42.79,6.0312,-0.035,0.018,-0.021,47.0,51.0,47.0,12.2,1504.4,287.5,-0.6,-0.3,967.302,13.22,0.039,297.2
04,2022-03-24T08:00:00,1000.0,42.79,6.0312,-0.036,0.032,-0.019,49.0,50.0,46.0,12.2,1504.5,303.5,-0.6,-0.3,967.316,13.23,0.048,311.6
04,2022-03-24T08:30:00,1000.0,42.79,6.0312,-0.008,0.046,-0.009,47.0,48.0,47.0,12.2,1504.5,326.2,-0.5,-0.4,967.345,13.23,0.046,350.1
04,2022-03-24T09:00:00,1000.0,42.79,6.0312,-0.005,0.051,0.015,47.0,51.0,46.0,12.2,1504.5,327.3,-0.5,-0.3,967.357,13.23,0.051,354.4
04,2022-03-24T09:30:00,1000.0,42.79,6.0312,-0.027,0.039,0.007,48.0,50.0,47.0,12.2,1504.4,298.1,-0.6,-0.3,967.392,13.22,0.047,325.3
04,2022-03-24T10:00:00,1000.0,42.79,6.0312,-0.004,0.04,0.009,46.0,50.0,45.0,12.2,1504.4,325.5,-0.6,-0.4,967.419,13.22,0.04,354.3
04,2022-03-24T10:30:00,1000.0,42.79,6.0312,-0.02,0.018,0.001,47.0,50.0,46.0,12.2,1504.4,296.0,-0.6,-0.3,967.378,13.22,0.026,312.0
04,2022-03-24T11:00:00,1000.0,42.79,6.0312,-0.018,0.021,0.004,47.0,47.0,43.0,12.2,1504.4,299.0,-0.5,-0.3,967.398,13.22,0.027,319.4
04,2022-03-24T11:30:00,1000.0,42.79,6.0312,-0.016,0.019,0.005,50.0,50.0,45.0,12.2,1504.4,300.2,-0.5,-0.3,967.363,13.22,0.024,319.9
04,2022-03-24T12:00:00,1000.0,42.79,6.0312,-0.012,0.024,-0.001,47.0,48.0,42.0,12.2,1504.4,292.6,-0.5,-0.3,967.367,13.22,0.026,333.4
04,2022-03-24T12:30:00,1000.0,42.79,6.0312,0.0,0.008,0.001,46.0,50.0,44.0,12.2,1504.5,283.0,-0.5,-0.3,967.357,13.23,0.008,0.0
04,2022-03-24T13:00:00,1000.0,42.79,6.0312,-0.003,-0.004,-0.007,51.0,51.0,49.0,12.2,1504.5,277.4,-0.6,-0.3,967.363,13.23,0.005,216.9
04,2022-03-24T13:30:00,1000.0,42.79,6.0312,-0.008,0.0,0.009,43.0,51.0,44.0,12.2,1504.5,280.5,-0.5,-0.3,967.316,13.23,0.008,270.0
04,2022-03-24T14:00:00,1000.0,42.79,6.0312,-0.03,0.013,0.004,47.0,51.0,44.0,12.2,1504.4,283.4,-0.5,-0.3,967.34,13.22,0.032,293.4
04,2022-03-24T14:30:00,1000.0,42.79,6.0312,-0.033,0.026,0.01,46.0,48.0,46.0,12.2,1504.4,296.2,-0.5,-0.3,967.31,13.21,0.042,308.2
04,2022-03-24T15:00:00,1000.0,42.79,6.0312,-0.018,0.008,-0.003,45.0,49.0,43.0,12.2,1504.4,290.3,-0.6,-0.3,967.301,13.21,0.019,294.0
04,2022-03-24T15:30:00,1000.0,42.79,6.0312,-0.018,0.012,0.002,44.0,48.0,43.0,12.2,1504.4,285.3,-0.6,-0.3,967.326,13.21,0.021,303.7
04,2022-03-24T16:00:00,1000.0,42.79,6.0312,-0.01,0.015,-0.001,47.0,48.0,45.0,12.2,1504.4,289.0,-0.6,-0.3,967.285,13.22,0.018,326.3
04,2022-03-24T16:30:00,1000.0,42.79,6.0312,-0.021,0.013,0.007,49.0,48.0,48.0,12.2,1504.4,283.1,-0.6,-0.3,967.252,13.22,0.024,301.8
04,2022-03-24T17:00:00,1000.0,42.79,6.0312,-0.019,0.0,0.001,48.0,51.0,47.0,12.2,1504.4,280.6,-0.6,-0.3,967.252,13.22,0.019,270.0
04,2022-03-24T17:30:00,1000.0,42.79,6.0312,-0.029,0.001,0.008,51.0,53.0,46.0,12.2,1504.4,282.2,-0.6,-0.3,967.236,13.22,0.029,272.0
04,2022-03-24T18:00:00,1000.0,42.79,6.0312,-0.034,-0.004,-0.009,49.0,52.0,47.0,12.2,1504.5,286.4,-0.5,-0.3,967.239,13.23,0.034,263.3
04,2022-03-24T18:30:00,1000.0,42.79,6.0312,-0.048,0.0,0.012,47.0,50.0,49.0,12.2,1504.5,275.6,-0.6,-0.3,967.261,13.24,0.048,270.0
04,2022-03-24T19:00:00,1000.0,42.79,6.0312,-0.029,-0.006,0.005,47.0,47.0,47.0,12.2,1504.5,276.6,-0.6,-0.2,967.237,13.24,0.029,258.3
04,2022-03-24T19:30:00,1000.0,42.79,6.0312,-0.026,-0.007,0.005,47.0,48.0,46.0,12.2,1504.5,277.0,-0.5,-0.3,967.248,13.23,0.026,254.9
04,2022-03-24T20:00:00,1000.0,42.79,6.0312,-0.024,-0.008,0.025,47.0,51.0,47.0,12.2,1504.4,285.8,-0.5,-0.2,967.26,13.22,0.025,251.6
04,2022-03-24T20:30:00,1000.0,42.79,6.0312,-0.043,0.0,-0.007,48.0,51.0,45.0,12.2,1504.5,274.0,-0.5,-0.3,967.318,13.23,0.043,270.0
04,2022-03-24T21:00:00,1000.0,42.79,6.0312,-0.047,0.0,0.013,49.0,49.0,46.0,12.2,1504.5,275.3,-0.5,-0.2,967.335,13.23,0.047,270.0
